CZ-4B DEB

Satellite information

Favourite Embed

Satellite Type and Status

DEBRISIN ORBIT

Key statistics

Satellite CZ-4B DEB at a glance.

Uptime

9556

Days in orbit

Revolutions

≈ 14.3

Per day

Orbit

SSO

Sun Synchronous Orbit

Inclination

98.7

Latest

Satellite identification and parameters

Extended collection of information and parameters for CZ-4B DEB.

Object identification

Identified? True

Debris? True

Object name: CZ-4B DEB

International designator: 1999-025EKE

Object number (NORAD): 37581

Object ID (CCSDS): 37581

Country: PEOPLES REPUBLIC OF CHINA (PRC)

Current information (Y/N): Y

RCS size: SMALL

Orbital parameters

Period: 100.929 minutes

Inclination: 98.7452 deg

SMA: 7180.776 km

Apoapsis: 879.666 km

Periapsis: 725.615 km

RAAN: 230.8635 deg

Eccentricy: 0.0107266

Argument of periapsis: 142.0025 deg

Mean anomaly: 342.9767 deg

Mean motion: 14.26742887 rev/day

Mean motion (dot): 0.00000862 rev/day2

B* drag term: 0.00035211 1/REarth

Two-line elements (TLE)

Creation date: July 7, 2025, 5:18 a.m.

Reference frame: TEME

Reference center: EARTH

Epoch: July 6, 2025, 10:09 p.m. UTC

TLE line 0: 0 CZ-4B DEB

TLE line 1: 1 37581U 99025EKE 25187.92302145 .00000862 00000-0 35211-3 0 9999

TLE line 2: 2 37581 98.7452 230.8635 0107266 142.0025 342.9767 14.26742887194241

Live tracking on map

Real-time ground track for satellite CZ-4B DEB.

In-orbit conjunctions

A list of the most updated potential collisions computed for object CZ-4B DEB.

Target Orbit TCA Probability of collision Miss distance Type
CZ-6A DEB LEO 2025-02-06 20:26:38 0.0001170524 508.0 (m) DEBRIS
SL-8 R/B LEO 2024-11-01 00:29:24 0.0001156085 455.0 (m) ROCKET BODY
FENGYUN 1C SSO 2024-06-22 13:05:59 0.0001234789 836.0 (m) PAYLOAD

Associated space launch

Chinese polar orbiting meteorological satellite

CZ-4B DEB was lifted into orbit during the mission ‘Long March 4B | Feng Yun 1C’, on board a Long March 4B space rocket.

The launch took place on May 10, 1999, 1:33 a.m. from Launch Complex 7.

For more information about the launch, click the button.

Launch to space Long March 4B | Feng Yun 1C
Long March 4B | Feng Yun 1C

Agency: N/A

Status: Launch Successful

Launch date: May 10, 1999, 1:33 a.m. UTC

Rocket: Long March 4B

Launch pad: Launch Complex 7

Location: Taiyuan Satellite Launch Center, People's Republic of China

...

Latest news about this satellite

There are no fresh news available about this satellite. Check back as we update our databases every day.


Newsletter sign-up

Weekly statistics, charts and insights to help you stay on top of the space industry.